Regional Weather Roundup
Issued by NWS Newport/Morehead, NC

Home | Current Version | Previous Version | Text Only | Print | Product List | Glossary On
Versions: 1 2 3 4 5 6 7 8 9 10 11 12 13 14 15 16 17 18 19 20 21 22 23 24 25 26 27 28 29 30 31 32 33 34 35 36 37 38 39 40 41 42 43 44 45 46 47 48 49 50
000
ASUS42 KMHX 031424
RWRMHX
WEATHER ROUNDUP FOR EASTERN NORTH CAROLINA
NATIONAL WEATHER SERVICE NEWPORT/MOREHEAD CITY NC
900 AM EST SAT DEC 03 2016

NOTE: "FAIR" INDICATES FEW OR NO CLOUDS BELOW 12,000 FEET
WITH NO SIGNIFICANT WEATHER AND/OR OBSTRUCTIONS TO VISIBILITY

NCZ015>017-031-032-045>047-102-103-031500-
NORTH COAST

CITY           SKY/WX    TMP DP  RH WIND       PRES   REMARKS
EDENTON        SUNNY     44  33  63 NW9       30.26R
ELIZABETH CITY SUNNY     42  31  64 W13       30.24R
KITTY HAWK     SUNNY     45  34  64 NW7       30.20S
MANTEO         SUNNY     45  31  59 N13G18    30.22R

$$

NCZ045>047-081-094-103-104-031500-
CENTRAL COAST

CITY           SKY/WX    TMP DP  RH WIND       PRES   REMARKS
FRISCO         SUNNY     48  31  51 VRB6G20   30.21R

$$

NCZ095-097-098-100-101-031500-
SOUTHERN COAST

CITY           SKY/WX    TMP DP  RH WIND       PRES   REMARKS
BEAUFORT       SUNNY     46  36  68 N12       30.25R
CEDAR ISLAND   NOT AVBL
JACKSONVILLE   SUNNY     43  33  68 N9        30.28R
PINEY ISLAND   SUNNY    N/A N/A N/A N13G20    30.24R
WILMINGTON     SUNNY     43  31  62 N12       30.27R


$$

NCZ011>013-027>030-043-044-078>080-089-090>093-098-031500-
COASTAL PLAIN

CITY           SKY/WX    TMP DP  RH WIND       PRES   REMARKS
AHOSKIE        SUNNY     40  29  66 N3        30.27S
CLINTON        SUNNY     44  32  63 N8        30.29R
ELIZABETHTOWN  SUNNY     43  34  71 CALM      30.30R
GOLDSBORO      SUNNY     43  28  55 NW8       30.27R
GREENVILLE     SUNNY     41  32  70 N7        30.29R
HAVELOCK       SUNNY     46  33  60 N12       30.27R
KENANSVILLE    SUNNY     45  28  53 N12       30.29R
KINSTON        SUNNY     43  32  65 NW6       30.29R
NEW BERN       SUNNY     43  31  62 N9        30.27R
RICHLANDS      SUNNY     43  32  65 N7        30.28R
ROCKY MOUNT    SUNNY     42  31  64 NW6       30.29R
WASHINGTON     SUNNY     41  31  68 N7        30.28R
WHITEVILLE     SUNNY     44  33  65 N5        30.29R

$$

AMZ130-135-150-152-154-156-158-170-250-252-270-ANZ085-086-088-633-658-670-031500-
MARINE OBSERVATIONS

STATION/POSITION TIME  TEMP    WIND        PRES    WAVE   SWELL
                       AIR SEA DIR/SP/G            HT/PER HT/PER
                 (UTC) (F)     (DEG/KT/KT) (MB)    (FT/S) (FT/S)
CHESAPEAKE LIGHT NOT AVBL
64 E VA BEACH    1350   49 60  330/ 23/ 29 1020.7    9/ 7
DUCK             1400   45 56  320/ 19/ 22 1022.3
2 E DUCK         NOT AVBL
OREGON INLET     1400   46 57  320/ 13/ 21 1022.8
13E OREGON INLT  1400      62                N/A     7/ 7   3/11
HATTERAS CG      1400   47 58  330/ 19/ 23 1022.9
DIAMOND BUOY     1350      74  360/ 23/ 29 1022.0    6/ 6
CAPE LOOKOUT     1400   45     340/ 12/ 14 1023.6
BEAUFORT LAB     1400   44 56  350/ 11/ 13 1023.4
30 SE NEW RVR IN 1308   50 71   20/ 17/ 23 1023.6
30 SE NEW RVR IN NOT AVBL
27 SE WRIGHTSVLE 1408   49 69   30/ 16/ 23 1024.1
5 SE WRIGHTSVLE  1408   45 63   20/ 19/ 29 1024.4
225 S CAPE HAT   1350   65 74  340/ 16/ 19 1021.2    5/ 5   2/ 8
41 SE CHARLESTON 1350   60 75   20/ 17/ 21 1023.0    4/ 5   2/ 8

$$



USA.gov is the U.S. government's official web portal to all federal, state and local government web resources and services.